Regional Weather Roundup
Issued by NWS

Home | Current Version | Previous Version | Text Only | Print | Product List | Glossary Off
Versions: 1 2 3 4 5 6 7 8 9 10 11 12 13 14 15 16 17 18 19 20 21 22 23 24 25 26 27 28 29 30 31 32 33 34 35 36 37 38 39 40 41 42 43 44 45 46 47 48 49

000
ASUS45 KCYS 220510
RWRWY

WYOMING REGIONAL WEATHER ROUNDUP
NATIONAL WEATHER SERVICE CHEYENNE WY
1000 PM MST SUN DEC 21 2014

NOTE:  "FAIR" INDICATES FEW OR NO CLOUDS BELOW 12,000 FEET
WITH NO SIGNIFICANT WEATHER AND/OR OBSTRUCTIONS TO VISIBILITY.

WYZ001-220600-
YELLOWSTONE NATIONAL PARK

CITY           SKY/WX    TMP DP  RH WIND       PRES   REMARKS
LK YELLOWSTONE   N/A     23  17  78 W7G20     29.79S WCI  15
W YELLOWSTONE  NOT AVBL

$$
WYZ002>013-054>058-071-098>099-220600-
NORTHERN WYOMING

CITY           SKY/WX    TMP DP  RH WIND       PRES   REMARKS
JACKSON        CLOUDY    34  18  51 W22G36    29.82S WCI  22
CODY           FAIR      36  19  51 W13G20    29.69S WCI  27
GREYBULL       CLOUDY    31  28  89 W5        29.69R WCI  26
WORLAND        MOCLDY    33  31  92 S6        29.71R WCI  28
SHERIDAN       FLURRIES  36  28  73 NW25G33   29.67R WCI  24
BUFFALO        CLOUDY    35  25  66 N28G38    29.62R WCI  22
GILLETTE       MOCLDY    34  29  82 NW15      29.60R WCI  24
HULETT           N/A    N/A N/A N/A MISG        N/A
NEWCASTLE      MOCLDY    32  32 100 NW14G22   29.56S WCI  22

$$
WYZ014>020-022>026-101>103-220600-
CENTRAL WYOMING

CITY           SKY/WX    TMP DP  RH WIND       PRES   REMARKS
BIG PINEY      MOCLDY    31  19  61 N23G33    29.84R WCI  18
PINEDALE       FAIR      23  18  80 W14       29.82R WCI  11
DUBOIS         NOT AVBL
LANDER         FAIR      34  16  47 W12       29.70R WCI  25
RIVERTON       FAIR      34  20  56 NW29G39   29.71R WCI  20
CASPER         MOCLDY    32  26  78 W14       29.66F WCI  22
DOUGLAS        MOCLDY    32  28  85 NW12      29.64R WCI  23

$$
WYZ021-027>030-104>119-220600-
SOUTHERN WYOMING

CITY           SKY/WX    TMP DP  RH WIND       PRES   REMARKS
EVANSTON       LGT SNOW  34  28  79 NW18G41   29.96R WCI  23
KEMMERER       MOCLDY    32  28  86 W31G37    29.87R WCI  17
FORT BRIDGER   CLOUDY    35  32  89 W29G41    29.90R WCI  22
ROCK SPRINGS   LGT SNOW  30  29  96 W26G35    29.80S FOG     WCI  16
DIXON          CLOUDY    36  27  71 W25G35    29.79S WCI  23
RAWLINS        FAIR      30  18  60 NW18      29.72F WCI  18
SARATOGA       MOCLDY    32  27  80 W12       29.74S WCI  23
LARAMIE        MOCLDY    26  24  92 NW16      29.66F WCI  14
CHEYENNE       MOCLDY    33  23  66 NW16G23   29.63F WCI  23
TORRINGTON     FAIR     N/A N/A N/A W3        29.61R
PINE BLUFFS    CLOUDY    34  30  86 NW14G20   29.63S WCI  24

$$



USA.gov is the U.S. government's official web portal to all federal, state and local government web resources and services.